Simultaneous Nadir Overpasses (SNOs) Predictions

Prediction of SNOs between METOP-B and NOAA-19 Satellite Orbit:

Table of predicted SNOs for the next 14.0 days since TLE Epoch: 12/22/2017
Index Date (METOP-B) Time (METOP-B) Lat,Lon (METOP-B) SZA (METOP-B ) Date (NOAA-19) Time (NOAA-19) Lat,Lon (NOAA-19) SZA (NOAA-19 ) Distance(km) Time Diff (sec)
1 12/25/2017 21:35:33 -77.83, 43.55 78.78 12/25/2017 21:34:20 -77.86, 43.58 78.76 3.37 73
2 12/25/2017 22:26:13 77.83,-149.14 101.22 12/25/2017 22:25:22 77.85,-149.11 101.24 2.61 51
3 12/25/2017 23:16:55 -77.82, 18.13 78.80 12/25/2017 23:16:21 -77.85, 18.16 78.77 3.65 34
4 12/26/2017 00:07:35 77.81,-174.56 101.20 12/26/2017 00:07:23 77.84,-174.54 101.22 2.96 12
5 12/26/2017 00:58:17 -77.80, -7.29 78.82 12/26/2017 00:58:22 -77.83, -7.27 78.79 3.94 5
6 12/26/2017 01:48:57 77.79, 160.01 101.17 12/26/2017 01:49:24 77.82, 160.03 101.21 3.32 27
7 12/26/2017 02:39:39 -77.78, -32.72 78.85 12/26/2017 02:40:23 -77.82, -32.70 78.80 4.23 44
8 12/26/2017 03:30:19 77.78, 134.59 101.15 12/26/2017 03:31:25 77.81, 134.60 101.19 3.70 66
9 12/26/2017 04:21:10 -77.39, -59.89 79.28 12/26/2017 04:22:14 -77.41, -56.09 79.15 92.36 64
10 01/05/2018 17:44:52 -77.87, 101.38 79.59 01/05/2018 17:43:43 -77.87, 101.51 79.58 3.25 69
11 01/05/2018 18:35:31 77.89, -91.18 100.44 01/05/2018 18:34:42 77.86, -91.18 100.41 2.55 49
12 01/05/2018 19:26:14 -77.85, 75.95 79.61 01/05/2018 19:25:44 -77.86, 76.08 79.60 3.29 30
13 01/05/2018 20:16:53 77.87,-116.60 100.41 01/05/2018 20:16:43 77.85,-116.61 100.39 2.10 10
14 01/05/2018 21:07:36 -77.83, 50.53 79.64 01/05/2018 21:07:45 -77.85, 50.65 79.62 3.37 9
15 01/05/2018 21:58:15 77.85,-142.03 100.38 01/05/2018 21:58:44 77.84,-142.04 100.37 1.67 29




NCC Satellite Simultaneous Nadir Overpasses (SNOs) Prediction Service
